National Weather Service Raw Text Product

Displaying AFOS PIL: RWRCLE Received: 2017-10-19 00:00 UTC


996 
ASUS41 KCLE 190000
RWRCLE
OHIO REGIONAL WEATHER ROUNDUP
NATIONAL WEATHER SERVICE WILMINGTON, OH
800 PM EDT WED OCT 18 2017

NOTE: "FAIR" INDICATES FEW OR NO CLOUDS BELOW 12,000 FEET WITH NO
SIGNIFICANT WEATHER AND/OR OBSTRUCTIONS TO VISIBILITY.

OHZ001>008-015>018-024>027-034-035-043-044-190100-
   NORTHWEST OHIO
  
CITY           SKY/WX    TMP DP  RH WIND       PRES   REMARKS
DEFIANCE       FAIR      59  39  47 S7        30.13F                  
FINDLAY        FAIR      55  39  54 S8        30.15S                  
TOLEDO EXPRESS FAIR      59  45  59 S5        30.13S                  
TOLEDO EXEC    FAIR      56  41  57 S7        30.15R                  
LIMA           FAIR      59  41  51 S8        30.17S                  
$$
 
OHZ009>014-019>023-028>033-038-089-190100-
   NORTHEAST OHIO
  
CITY           SKY/WX    TMP DP  RH WIND       PRES   REMARKS
CLE-HOPKINS    FAIR      59  42  53 S9        30.19F                  
CLE-LAKEFRONT  FAIR      63  40  42 S9        30.17S                  
CUY CO. ARPT   CLEAR     61  41  48 S9        30.19S                  
LORAIN-ELYRIA  FAIR      59  37  44 S8        30.18S                  
ASHTABULA      FAIR      58  43  57 S5        30.20S                  
AKRON-CANTON   FAIR      57  39  51 S8        30.22R                  
WOOSTER        NOT AVBL                                               
MANSFIELD      FAIR      55  39  54 S6        30.20S                  
YOUNGSTOWN     FAIR      56  41  57 S5        30.22R                  
$$
 
OHZ042-051>053-060>062-070>072-077>081-190100-
  SOUTHWEST OHIO
  
CITY           SKY/WX    TMP DP  RH WIND       PRES   REMARKS
CINC-COVINGTON FAIR      57  45  64 S5        30.21S                  
CINC-LUNKEN    FAIR      53  49  86 CALM      30.22R                  
HAMILTON       FAIR      52  45  77 CALM      30.21S                  
DAYTON         NOT AVBL                                               
WRIGHT-PAT AFB NOT AVBL                                               
DAYTON GENERAL FAIR      58  44  60 S6        30.20S                  
WILMINGTON     FAIR      56  44  64 S5        30.21S                  
$$

OHZ036-037-039>041-045>050-054>059-063>069-073>076-082>088-190100-
  CENTRAL AND SOUTHEAST OHIO
  
CITY           SKY/WX    TMP DP  RH WIND       PRES   REMARKS
COLUMBUS       FAIR      62  40  44 SE6       30.20S                  
OSU AIRPORT    FAIR      61  41  47 S6        30.20S                  
BOLTON FIELD   NOT AVBL                                               
RICKENBACK AFB NOT AVBL                                               
NEWARK         FAIR      51  43  74 NW3       30.22R                  
MARION         FAIR      57  40  52 S8        30.19S                  
LANCASTER      FAIR      48  42  80 CALM      30.22S                  
ZANESVILLE     FAIR      56  39  53 CALM      30.23R                  
NEW PHILLY     FAIR      55  43  63 CALM      30.23R                  
$$